Погода в Нерюнгри

Россия / Республика Саха (Якутия)     56°39′35″N   124°43′13″E
темп.,
°C
ветер,
м/с
пор.,
м/с
влажн.,
%
обл.,
%
осадки,
мм/ч
давл.,
гПа
погр.,
м
27 февраля, сб
сб2700:00−24ююв2895100 0.0 1029265
03:00−22ююв41196100 0.1 1026503
06:00−21ююв41296100 0.4 1023623
09:00−21ююв41197100 1.0 1021648
12:00−19ююв3796100 1.1 1018802
15:00−18ююз2395100 2.3 1015471
18:00−19зсз2598100 1.3 1017311
21:00−23сз71293100 1.8 1019887
28 февраля, вс
вс2800:00−24ссз61391100 0.2 10221059
03:00−25ссз61292100 0.3 10251188
06:00−27ссз51492100 0.1 10291205
09:00−26ссз61686100 0.1 10311436
12:00−25ссз71383100 0.0 10321460
15:00−25ссз51081100 0.1 10331546
18:00−27сз31087100 0.1 1035646
21:00−31сз249098 0.1 103862
1 марта, пн
пн100:00−33зсз129770 0.0 103819
03:00−33з119985 0.1 103919
06:00−34зюз1199100 0.0 103919
09:00−32ююз1198100 0.1 103831
12:00−26сз3682100 0.0 10351197
15:00−25ссз3679100 0.1 10321464
18:00−28зсз2285100 0.0 103319
21:00−33зюз128656 0.0 103419
2 марта, вт
вт200:00−36ююз12880 0.0 103319
03:00−37ю128810 0.0 103319
06:00−38ююв129015 0.0 103219
09:00−35ююв11897 0.0 103160
12:00−27ююв35850 0.0 1027436
15:00−23ююв368530 0.0 1024784
18:00−26юв3892100 0.0 1024319
21:00−30ююв2296100 0.0 102527
3 марта, ср
ср300:00−30юв1298100 0.1 102319
03:00−30юв1199100 0.1 102219
06:00−30вюв1199100 0.1 102119
09:00−29всв1198100 0.3 1020112
12:00−25св1190100 0.1 1017500
15:00−24с2387100 0.2 1015719
18:00−26сз4893100 0.1 1016454
21:00−28сз3896100 0.1 1019344